GW4157 Weather Reports


time (UTC)temp
C
wind
direction
speed
KPH
gust
KPH
rain 1hr
cm
rain 24hr
cm
rain mn
cm
humidity
%
barometer
mb
20260507211547 11 281 6.4 14.5 0.00 0.00 0.00 48 1008.5
20260507210054 11 299 4.8 14.5 0.00 0.00 0.00 46 1008.5
20260507204543 12 275 4.8 17.7 0.00 0.00 0.00 45 1008.3
20260507203037 12 263 8.0 19.3 0.00 0.00 0.00 47 1008.5
20260507201535 12 243 4.8 12.9 0.00 0.00 0.00 46 1008.5
20260507200050 12 194 6.4 14.5 0.00 0.00 0.00 49 1008.6
20260507194548 12 243 6.4 12.9 0.00 0.00 0.00 46 1008.7
20260507193037 12 271 6.4 14.5 0.00 0.00 0.00 47 1008.9
20260507191539 11 275 4.8 19.3 0.00 0.00 0.00 47 1008.9
20260507190045 12 242 6.4 16.1 0.00 0.00 0.00 45 1009.0
20260507184543 12 197 4.8 14.5 0.00 0.00 0.00 49 1009.1
20260507183043 12 188 3.2 11.3 0.00 0.00 0.00 45 1009.2
20260507181535 12 206 3.2 11.3 0.00 0.00 0.00 48 1009.3
20260507180036 12 269 3.2 20.9 0.00 0.00 0.00 45 1009.1
20260507174536 12 265 3.2 11.3 0.00 0.00 0.00 46 1009.4
20260507173046 12 213 6.4 11.3 0.00 0.00 0.00 42 1009.6
20260507171534 12 188 6.4 14.5 0.00 0.00 0.00 44 1009.6
20260507170036 12 255 6.4 19.3 0.00 0.00 0.00 46 1009.8
20260507164546 11 276 4.8 14.5 0.00 0.00 0.00 44 1010.1
20260507163035 11 290 8.0 19.3 0.00 0.00 0.00 45 1010.3
20260507161549 11 287 6.4 19.3 0.00 0.00 0.00 49 1010.3
20260507160036 11 0 1.6 12.9 0.00 0.00 0.00 47 1010.4
20260507154536 11 40 3.2 19.3 0.00 0.00 0.00 48 1010.5
20260507153040 11 0 6.4 17.7 0.00 0.00 0.00 47 1010.6
20260507151537 10 265 4.8 17.7 0.00 0.00 0.00 48 1010.9
20260507150044 10 236 8.0 19.3 0.00 0.00 0.00 50 1011.0
20260507144539 10 250 6.4 20.9 0.00 0.00 0.00 54 1011.1
20260507143040 10 201 6.4 14.5 0.00 0.00 0.00 54 1011.1
20260507141543 10 211 8.0 17.7 0.00 0.00 0.00 55 1011.3
20260507140043 10 175 8.0 16.1 0.00 0.00 0.00 61 1011.5
20260507134534 9 175 6.4 19.3 0.00 0.03 0.00 60 1011.6
20260507133035 8 276 3.2 12.9 0.00 0.03 0.00 67 1011.7
20260507131539 8 196 4.8 12.9 0.00 0.03 0.00 65 1011.7
20260507130040 8 238 4.8 11.3 0.00 0.03 0.00 66 1011.7
20260507124545 7 203 3.2 8.0 0.00 0.13 0.00 69 1011.6
20260507123036 7 179 4.8 9.7 0.00 0.13 0.00 70 1011.7
20260507121548 6 174 3.2 6.4 0.00 0.13 0.00 72 1011.8
20260507120035 5 136 0.0 3.2 0.00 0.13 0.00 80 1011.7
20260507114556 3 0 0.0 0.0 0.00 0.28 0.00 89 1011.7
20260507113059 2 0 0.0 0.0 0.00 0.28 0.00 91 1011.7
20260507111541 1 0 0.0 0.0 0.00 0.28 0.00 96 1011.7
20260507110036 0 0 0.0 0.0 0.00 0.28 0.00 95 1011.7
20260507104541 0 0 0.0 3.2 0.00 0.64 0.00 94 1011.5
20260507103049 0 286 0.0 1.6 0.00 0.64 0.00 94 1011.3
20260507101538 0 0 0.0 0.0 0.00 0.64 0.00 94 1011.3
20260507100037 0 0 0.0 1.6 0.00 0.64 0.00 93 1011.1
20260507094538 0 0 0.0 3.2 0.00 0.97 0.00 93 1011.0
20260507093036 0 0 0.0 0.0 0.00 0.97 0.00 93 1011.3
20260507091543 0 0 0.0 0.0 0.00 0.97 0.00 93 1011.3
20260507090038 0 0 0.0 0.0 0.00 0.97 0.00 92 1011.3
20260507084544 0 0 0.0 0.0 0.00 1.14 0.00 92 1011.3
20260507083036 0 0 0.0 0.0 0.00 1.14 0.00 91 1011.4
20260507081540 0 0 0.0 0.0 0.00 1.14 0.00 90 1011.4
20260507080043 0 0 0.0 0.0 0.00 1.14 0.00 90 1011.6
20260507074538 1 0 0.0 0.0 0.00 1.32 0.00 89 1011.5
20260507073037 1 0 0.0 0.0 0.00 1.32 0.00 88 1011.5
20260507071535 1 0 0.0 0.0 0.00 1.32 0.00 87 1011.4
20260507070035 2 0 0.0 0.0 0.00 1.32 0.00 86 1011.6
20260507064537 2 0 0.0 0.0 0.00 1.52 0.00 83 1011.6
20260507063038 3 0 0.0 0.0 0.00 1.52 0.00 82 1011.7
20260507061539 3 0 0.0 0.0 0.00 1.52 0.00 79 1011.7
20260507060037 4 0 0.0 0.0 0.00 1.52 0.00 77 1011.8
20260507054535 5 0 0.0 3.2 0.00 1.60 0.00 75 1011.9
20260507053041 5 0 0.0 3.2 0.00 1.60 0.00 76 1012.2
20260507051537 5 283 0.0 1.6 0.00 1.60 0.00 76 1012.4
20260507050035 5 283 0.0 3.2 0.00 1.60 0.00 75 1012.2
20260507044536 5 0 1.6 3.2 0.00 1.60 0.00 75 1012.4
20260507043045 5 0 1.6 4.8 0.00 1.60 0.00 73 1012.5
20260507041536 5 0 0.0 4.8 0.00 1.60 0.00 73 1012.6
20260507040040 5 281 0.0 3.2 0.00 1.60 0.00 72 1012.4
20260507034537 5 248 0.0 3.2 0.00 1.63 1.60 72 1012.3
20260507033038 6 248 1.6 4.8 0.00 1.63 1.60 71 1012.4
20260507031539 6 234 0.0 3.2 0.00 1.63 1.60 72 1012.4
20260507030036 6 300 3.2 4.8 0.00 1.63 1.60 71 1012.4
20260507024535 6 0 0.0 3.2 0.00 1.65 1.60 73 1012.1
20260507023037 6 0 0.0 1.6 0.00 1.65 1.60 73 1011.9
20260507021539 6 0 0.0 4.8 0.00 1.65 1.60 73 1011.7
20260507020048 6 300 0.0 3.2 0.00 1.65 1.60 73 1011.8
20260507014540 6 0 0.0 0.0 0.00 1.65 1.60 70 1012.0
20260507013035 6 267 0.0 0.0 0.00 1.65 1.60 70 1011.9
20260507011544 6 0 0.0 3.2 0.00 1.65 1.60 63 1011.8
20260507010037 7 0 0.0 3.2 0.00 1.65 1.60 65 1012.0
20260507004535 7 263 0.0 6.4 0.00 1.65 1.60 61 1012.0
20260507003036 7 0 0.0 8.0 0.00 1.65 1.60 58 1012.3
20260507001604 7 294 3.2 6.4 0.00 1.65 1.60 58 1011.8
20260507000041 7 299 1.6 12.9 0.00 1.65 1.60 58 1011.9
20260506234534 7 309 4.8 12.9 0.00 1.65 1.60 58 1011.6
20260506233036 8 269 6.4 14.5 0.00 1.65 1.60 61 1011.4
20260506231536 8 294 1.6 12.9 0.00 1.65 1.60 61 1011.1
20260506230051 8 278 4.8 14.5 0.00 1.65 1.60 61 1010.8
20260506224535 8 307 6.4 12.9 0.00 2.01 1.60 59 1010.7
20260506223035 8 326 4.8 12.9 0.00 2.01 1.60 62 1010.7
20260506221535 8 303 1.6 12.9 0.00 2.01 1.60 65 1010.5
20260506220038 9 313 6.4 16.1 0.00 2.01 1.60 63 1010.1
20260506214536 9 315 8.0 17.7 0.00 2.01 1.60 65 1010.0
20260506213035 10 294 4.8 12.9 0.00 2.01 1.60 71 1009.8